Location: Caltech
(34.1382°N, 118.1253°W)
Time: 16:15:32
(UTC-07:00)

Cosmos 1975 - Visible Passes

Search period start: 30 July 2014 00:00
Search period end: 09 August 2014 00:00
Orbit: 555 x 575 km, 82.5° (Epoch: 29 July)

Date Brightness Start Highest point End Pass type
(mag) Time Alt. Az. Time Alt. Az. Time Alt. Az.
30 Jul 5.5 23:04:33 15° NNE 23:04:33 15° NNE 23:05:19 10° NNE visible
31 Jul 5.4 23:04:51 17° NNE 23:04:51 17° NNE 23:05:51 10° NNE visible
01 Aug 5.3 23:05:08 19° N 23:05:08 19° N 23:06:21 10° N visible
02 Aug 5.2 23:05:24 21° N 23:05:24 21° N 23:06:49 10° N visible
03 Aug 5.2 23:05:38 22° N 23:05:38 22° N 23:07:14 10° N visible
04 Aug 5.1 23:05:51 23° NNW 23:05:51 23° NNW 23:07:36 10° N visible
05 Aug 5.2 23:06:02 23° NNW 23:06:02 23° NNW 23:07:56 10° N visible
06 Aug 5.3 21:30:11 11° NE 21:30:11 11° NE 21:30:32 10° NE visible
06 Aug 5.2 23:06:11 23° NW 23:06:11 23° NW 23:08:12 10° NNW visible
07 Aug 5.0 21:30:18 15° NE 21:30:18 15° NE 21:31:26 10° NE visible
07 Aug 5.3 23:06:18 21° NW 23:06:18 21° NW 23:08:25 10° NNW visible
08 Aug 4.6 21:30:22 19° ENE 21:30:22 19° ENE 21:32:12 10° NE visible
08 Aug 5.4 23:06:22 18° WNW 23:06:22 18° WNW 23:08:33 10° NNW visible
